Sheboygan, WI

6:15 AM CST on December 13, 2017 (GMT -0600)
Sheboygan County Memorial

Weather History for KSBM - June, 2014

Change the Weather History Date:

Friday, June 6, 2014

  Actual Average Record
Temperature  
Mean Temperature 67 °F -  
Max Temperature 79 °F 72 °F 94 °F (1988)
Min Temperature 55 °F 52 °F 38 °F (1958)
Cooling Degree Days 2    
Growing Degree Days 17 (Base 50)    
Moisture  
Dew Point 49 °F    
Average Humidity 58    
Maximum Humidity 84    
Minimum Humidity 37    
Precipitation  
Precipitation 0.00 in - - ()
Sea Level Pressure  
Sea Level Pressure 29.97 in    
Wind  
Wind Speed 4 mph (South)    
Max Wind Speed 13 mph    
Max Gust Speed -    
Visibility 10 miles    
Events      
Averages and records for this station are not official NWS values.
T = Trace of Precipitation, MM = Missing Value Source: NWS Daily Summary

Daily Weather History Graph

Daily Weather History Graph

Search for Another Location

Airport or City:

Trip Planner

Search our weather history database for the weather conditions in past years. The results will help you decide how hot, cold, wet, or windy it might be!

Date:

Astronomy

Jun. 06, 2014 Rise Set
Actual Time 5:10 AM CDT 8:30 PM CDT
Civil Twilight 4:34 AM CDT 9:05 PM CDT
Nautical Twilight 3:48 AM CDT 9:52 PM CDT
Astronomical Twilight 2:51 AM CDT 10:49 PM CDT
Moon 1:37 PM CDT (6/6) 1:14 AM CDT (6/6)
Length of Visible Light 16h 31m
Length of Day
15h 20m
First Quarter, 58% of the Moon is Illuminated
Jun 6
First Quarter
Jun 12
Full
Jun 19
Last Quarter
Jun 27
New
Jul 5
First Quarter

Hourly Weather History & Observations

Time (CDT) Temp. Dew Point Humidity Pressure Visibility Wind Dir Wind Speed Gust Speed Precip Events Conditions
12:53 AM 55.9 °F 46.0 °F 69% 29.95 in 10.0 mi Calm Calm - N/A   Clear
1:53 AM 55.9 °F 48.0 °F 75% 29.94 in 10.0 mi WSW 3.5 mph - N/A   Clear
2:53 AM 55.9 °F 50.0 °F 80% 29.95 in 10.0 mi SW 3.5 mph - N/A   Mostly Cloudy
3:53 AM 59.0 °F 48.0 °F 67% 29.96 in 10.0 mi SSW 3.5 mph - N/A   Overcast
4:53 AM 57.9 °F 51.1 °F 78% 29.97 in 10.0 mi East 3.5 mph - N/A   Overcast
5:53 AM 55.9 °F 51.1 °F 84% 29.99 in 10.0 mi Calm Calm - N/A   Mostly Cloudy
6:53 AM 60.1 °F 53.1 °F 78% 29.99 in 10.0 mi Calm Calm - N/A   Mostly Cloudy
7:53 AM 64.9 °F 54.0 °F 68% 30.00 in 10.0 mi South 6.9 mph - N/A   Clear
8:53 AM 70.0 °F 53.1 °F 55% 29.99 in 10.0 mi SSW 6.9 mph - N/A   Clear
10:53 AM 75.0 °F 50.0 °F 41% 29.97 in 10.0 mi Variable 5.8 mph - N/A   Clear
11:53 AM 75.9 °F 48.0 °F 37% 29.97 in 10.0 mi South 4.6 mph - N/A   Clear
12:53 PM 79.0 °F 53.1 °F 40% 29.96 in 10.0 mi SSW 10.4 mph - N/A   Clear
1:53 PM 75.9 °F 53.1 °F 45% 29.96 in 10.0 mi SE 9.2 mph - N/A   Partly Cloudy
2:53 PM 73.9 °F 50.0 °F 43% 29.97 in 10.0 mi SSE 12.7 mph - N/A   Scattered Clouds
4:53 PM 73.9 °F 46.0 °F 37% 29.98 in 10.0 mi South 10.4 mph - N/A   Overcast
5:53 PM 72.0 °F 46.9 °F 41% 29.97 in 10.0 mi South 11.5 mph - N/A   Partly Cloudy
6:53 PM 70.0 °F 46.0 °F 42% 29.97 in 10.0 mi South 10.4 mph - N/A   Clear
7:53 PM 66.9 °F 46.0 °F 47% 29.97 in 10.0 mi South 8.1 mph - N/A   Clear
8:53 PM 63.0 °F 46.0 °F 54% 29.98 in 10.0 mi SSW 5.8 mph - N/A   Clear
9:53 PM 60.1 °F 46.0 °F 60% 29.98 in 10.0 mi South 4.6 mph - N/A   Clear
10:53 PM 59.0 °F 46.0 °F 62% 30.00 in 10.0 mi SW 4.6 mph - N/A   Clear
11:53 PM 57.9 °F 46.0 °F 65% 30.01 in 10.0 mi SW 4.6 mph - N/A   Clear